Total_Precipitation_Accumulation
1.41 1.36 1.23 1.20 1.12 0.99 0.93 0.87 0.81 0.76 0.68 0.60 0.52 0.47 0.46 0.46 0.44 0.47 0.44 0.40 0.48 0.74 1.05 1.20 1.21 1.26 1.31 1.37 1.39 1.33 1.23 1.17 1.09 1.02 0.96 0.94 0.94 0.95 0.94 0.92 0.90 0.90 0.90
1.58 1.44 1.31 1.26 1.21 1.07 0.96 0.93 0.87 0.85 0.80 0.73 0.64 0.55 0.48 0.47 0.44 0.45 0.46 0.43 0.44 0.55 0.80 1.07 1.21 1.37 1.54 1.64 1.59 1.52 1.41 1.35 1.30 1.22 1.12 1.03 0.99 0.96 0.97 0.95 0.92 0.91 0.94
1.78 1.69 1.49 1.34 1.28 1.26 1.21 1.14 1.09 0.97 0.87 0.79 0.74 0.68 0.60 0.56 0.50 0.45 0.45 0.45 0.44 0.44 0.57 0.85 1.09 1.29 1.53 1.70 1.72 1.66 1.55 1.44 1.41 1.37 1.26 1.14 1.05 0.99 0.98 0.97 0.96 0.97 0.98
1.99 1.91 1.77 1.58 1.49 1.49 1.46 1.33 1.19 1.12 0.96 0.84 0.77 0.73 0.67 0.62 0.55 0.50 0.46 0.42 0.40 0.38 0.44 0.62 0.83 1.06 1.34 1.55 1.69 1.72 1.66 1.52 1.43 1.41 1.32 1.22 1.17 1.14 1.12 1.11 1.08 1.10 1.11
2.20 2.03 1.84 1.73 1.75 1.71 1.59 1.49 1.32 1.28 1.22 1.02 0.87 0.80 0.75 0.70 0.63 0.58 0.52 0.47 0.43 0.38 0.39 0.46 0.59 0.70 0.93 1.26 1.54 1.76 1.83 1.75 1.63 1.53 1.46 1.38 1.34 1.32 1.30 1.29 1.28 1.27 1.32
2.59 2.39 2.03 1.89 1.92 1.93 1.85 1.71 1.59 1.47 1.39 1.37 1.21 0.96 0.82 0.77 0.73 0.66 0.60 0.54 0.49 0.43 0.40 0.41 0.47 0.52 0.63 0.87 1.23 1.56 1.84 1.93 1.85 1.72 1.64 1.58 1.53 1.49 1.50 1.52 1.53 1.54 1.57
2.67 2.78 2.49 2.21 2.15 2.11 2.08 2.04 1.99 1.88 1.67 1.61 1.60 1.32 1.03 0.87 0.81 0.72 0.68 0.66 0.59 0.54 0.51 0.48 0.50 0.52 0.57 0.74 0.94 1.15 1.45 1.77 1.91 1.90 1.81 1.75 1.73 1.72 1.77 1.80 1.80 1.76 1.76
2.73 2.79 2.86 2.65 2.35 2.28 2.29 2.29 2.20 2.05 1.96 1.90 1.83 1.74 1.53 1.31 1.00 0.82 0.76 0.72 0.68 0.66 0.64 0.62 0.61 0.62 0.63 0.71 0.78 0.86 1.03 1.37 1.71 1.93 1.95 1.88 1.85 1.86 1.96 2.09 2.17 2.16 2.11
2.87 2.80 2.77 2.81 2.69 2.51 2.41 2.41 2.47 2.45 2.31 2.19 2.07 2.11 1.84 1.52 1.21 0.99 0.89 0.84 0.83 0.80 0.76 0.76 0.76 0.75 0.75 0.75 0.72 0.74 0.82 1.04 1.38 1.82 2.13 2.23 2.18 2.19 2.29 2.38 2.46 2.56 2.54
2.95 2.87 2.85 2.84 2.81 2.71 2.55 2.51 2.58 2.63 2.65 2.56 2.40 2.20 1.96 1.63 1.49 1.25 1.02 0.99 1.04 1.03 0.98 0.93 0.89 0.87 0.85 0.83 0.81 0.82 0.86 0.94 1.24 1.70 2.20 2.54 2.66 2.79 2.97 3.00 3.07 3.15 3.08
3.11 2.99 2.91 2.90 2.89 2.83 2.75 2.69 2.68 2.69 2.70 2.67 2.60 2.42 2.24 1.91 1.63 1.52 1.29 1.14 1.19 1.16 1.14 1.10 1.03 0.98 0.96 0.92 0.88 0.94 1.08 1.12 1.33 1.69 2.19 2.73 3.06 3.27 3.48 3.58 3.64 3.69 3.69
2.94 2.88 2.91 2.85 2.81 2.77 2.68 2.65 2.66 2.65 2.66 2.59 2.50 2.37 2.28 2.12 1.86 1.76 1.58 1.35 1.34 1.32 1.33 1.29 1.21 1.13 1.08 1.01 0.99 1.18 1.19 1.22 1.40 1.67 2.10 2.62 2.99 3.26 3.46 3.64 3.76 3.79 3.87
2.61 2.56 2.64 2.72 2.71 2.66 2.66 2.63 2.59 2.50 2.53 2.56 2.45 2.30 2.15 1.92 1.78 1.84 1.84 1.65 1.48 1.34 1.35 1.36 1.31 1.31 1.29 1.27 1.26 1.42 1.32 1.36 1.43 1.67 2.02 2.40 2.54 2.65 2.81 2.99 3.26 3.40 3.49
2.38 2.39 2.45 2.54 2.63 2.67 2.63 2.65 2.59 2.46 2.41 2.39 2.37 2.29 2.22 2.03 1.84 1.79 1.83 1.91 1.87 1.61 1.42 1.30 1.26 1.36 1.46 1.50 1.59 1.70 1.43 1.58 1.56 1.62 1.83 2.03 2.09 2.04 2.13 2.36 2.64 2.87 3.02
2.24 2.28 2.42 2.43 2.42 2.48 2.49 2.49 2.47 2.33 2.24 2.19 2.14 2.17 2.16 2.06 1.97 1.86 1.84 1.97 2.24 2.21 1.80 1.46 1.41 1.47 1.57 1.61 1.76 1.62 1.38 1.59 1.65 1.61 1.66 1.70 1.72 1.71 1.73 1.88 2.08 2.29 2.41
2.04 2.05 2.15 2.27 2.28 2.29 2.36 2.41 2.31 2.16 2.09 1.97 1.88 1.92 1.96 1.96 2.01 2.02 1.99 2.01 2.14 2.34 2.14 1.60 1.45 1.48 1.57 1.61 1.75 1.58 1.47 1.67 1.58 1.53 1.53 1.52 1.49 1.48 1.51 1.58 1.73 1.90 2.07
1.88 1.84 1.91 1.97 1.99 1.99 2.03 2.13 2.13 2.08 2.04 1.97 1.86 1.76 1.71 1.76 1.90 1.98 2.06 2.09 2.12 2.21 2.21 1.73 1.43 1.39 1.47 1.48 1.46 1.37 1.36 1.38 1.34 1.48 1.42 1.38 1.38 1.37 1.37 1.42 1.51 1.63 1.76
1.79 1.76 1.78 1.84 1.85 1.83 1.83 1.87 1.87 1.87 1.91 1.90 1.89 1.86 1.76 1.74 1.87 1.96 2.06 2.08 2.03 1.98 1.99 1.82 1.50 1.36 1.33 1.29 1.27 1.24 1.20 1.20 1.19 1.41 1.41 1.36 1.35 1.33 1.29 1.30 1.37 1.46 1.55
1.71 1.74 1.70 1.73 1.74 1.76 1.80 1.80 1.80 1.79 1.75 1.76 1.83 1.90 1.85 1.87 1.90 1.88 1.88 1.86 1.80 1.72 1.67 1.64 1.46 1.31 1.28 1.27 1.30 1.24 1.15 1.11 1.08 1.22 1.29 1.29 1.35 1.37 1.33 1.32 1.37 1.40 1.40
1.57 1.64 1.63 1.59 1.63 1.69 1.74 1.77 1.84 1.90 1.87 1.82 1.82 1.86 1.87 1.88 1.83 1.82 1.81 1.74 1.69 1.68 1.63 1.61 1.52 1.39 1.30 1.26 1.33 1.33 1.26 1.14 1.09 1.05 1.18 1.19 1.26 1.36 1.39 1.29 1.20 1.20 1.20
1.50 1.53 1.57 1.56 1.57 1.66 1.77 1.81 1.81 1.89 1.98 1.97 1.90 1.83 1.78 1.87 1.86 1.81 1.77 1.75 1.78 1.86 1.82 1.78 1.66 1.49 1.32 1.24 1.22 1.16 1.19 1.17 1.13 1.07 1.13 1.12 1.10 1.08 1.13 1.22 1.24 1.23 1.26
1.53 1.56 1.62 1.65 1.65 1.69 2.01 2.09 1.98 1.93 1.96 1.93 1.86 1.75 1.69 1.77 1.74 1.79 1.81 1.81 1.89 2.01 2.09 2.00 1.78 1.51 1.19 1.03 1.03 1.16 1.30 1.43 1.37 1.08 1.07 1.03 0.97 1.02 1.00 1.04 1.22 1.28 1.31
1.63 1.70 1.76 1.80 1.83 1.89 2.04 1.94 1.94 1.80 1.77 1.74 1.65 1.56 1.49 1.44 1.50 1.35 1.49 1.64 1.68 1.80 1.87 1.80 1.65 1.31 1.11 1.04 1.21 1.38 1.37 1.38 1.23 1.04 1.17 1.25 1.09 1.04 0.98 1.07 1.25 1.16 1.17
1.75 1.84 1.92 1.92 1.87 1.89 1.88 1.69 1.69 1.56 1.48 1.42 1.37 1.33 1.31 1.26 1.26 1.32 1.36 1.45 1.38 1.31 1.27 1.22 1.20 1.14 1.13 1.19 1.38 1.59 1.61 1.57 1.33 1.15 1.19 1.37 1.20 1.09 0.99 1.03 1.19 1.13 1.15
1.77 1.78 1.78 1.73 1.62 1.57 1.58 1.43 1.38 1.28 1.30 1.25 1.16 1.14 1.17 1.13 1.31 1.53 1.55 1.52 1.33 1.20 1.21 1.25 1.31 1.34 1.46 1.51 1.54 1.71 1.85 1.96 1.77 1.37 1.19 1.24 1.13 1.07 1.05 1.03 1.08 1.18 1.13
1.50 1.40 1.32 1.27 1.20 1.12 1.21 1.24 1.26 1.14 1.13 1.11 1.08 1.08 1.21 1.21 1.41 1.60 1.55 1.57 1.45 1.20 1.17 1.21 1.21 1.20 1.19 1.28 1.48 1.50 1.74 2.13 1.93 1.59 1.16 1.25 1.27 1.36 1.58 1.18 1.02 1.02 1.03